TimeCDT,TemperatureF,Dew PointF,Humidity,Sea Level PressureIn,VisibilityMPH,Wind Direction,Wind SpeedMPH,Gust SpeedMPH,PrecipitationIn,Events,Conditions,WindDirDegrees,DateUTC
12:17 AM,50.0,46.4,87,30.03,10.0,NNW,6.9,-,0.02,Rain,Light Rain,340,2012-09-17 05:17:00
12:38 AM,50.0,46.4,87,30.02,10.0,NNW,6.9,-,0.02,,Overcast,340,2012-09-17 05:38:00
12:57 AM,50.0,46.4,87,30.03,10.0,NW,4.6,-,N/A,,Overcast,310,2012-09-17 05:57:00
1:18 AM,50.0,46.4,87,30.05,10.0,NW,8.1,-,N/A,,Overcast,320,2012-09-17 06:18:00
1:38 AM,50.0,46.4,87,30.05,10.0,NW,5.8,-,N/A,,Overcast,310,2012-09-17 06:38:00
1:57 AM,48.2,44.6,87,30.05,10.0,NW,3.5,-,N/A,,Mostly Cloudy,310,2012-09-17 06:57:00
2:17 AM,48.2,46.4,93,30.05,10.0,NW,6.9,-,N/A,,Scattered Clouds,320,2012-09-17 07:17:00
2:37 AM,48.2,44.6,87,30.04,10.0,NNW,6.9,-,N/A,,Mostly Cloudy,340,2012-09-17 07:37:00
2:58 AM,48.2,44.6,87,30.05,10.0,NNW,6.9,-,N/A,,Scattered Clouds,330,2012-09-17 07:58:00
3:18 AM,48.2,44.6,87,30.05,10.0,NNW,6.9,-,N/A,,Scattered Clouds,330,2012-09-17 08:18:00
3:37 AM,48.2,44.6,87,30.05,10.0,NNW,8.1,-,N/A,,Scattered Clouds,330,2012-09-17 08:37:00
3:57 AM,48.2,44.6,87,30.05,10.0,NNW,6.9,-,N/A,,Clear,330,2012-09-17 08:57:00
4:18 AM,48.2,44.6,87,30.04,10.0,NNW,8.1,-,N/A,,Clear,340,2012-09-17 09:18:00
4:37 AM,48.2,44.6,87,30.05,10.0,NNW,8.1,-,N/A,,Clear,340,2012-09-17 09:37:00
4:57 AM,48.2,42.8,82,30.05,10.0,NNW,10.4,-,N/A,,Clear,340,2012-09-17 09:57:00
5:17 AM,48.2,42.8,82,30.05,10.0,NNW,10.4,-,N/A,,Clear,340,2012-09-17 10:17:00
5:38 AM,48.2,41.0,76,30.05,10.0,NNW,12.7,-,N/A,,Clear,340,2012-09-17 10:38:00
5:57 AM,46.4,41.0,81,30.05,10.0,NNW,9.2,-,N/A,,Clear,340,2012-09-17 10:57:00
6:18 AM,46.4,39.2,76,30.05,10.0,NNW,10.4,-,N/A,,Clear,340,2012-09-17 11:18:00
6:37 AM,46.4,39.2,76,30.05,10.0,NNW,9.2,-,N/A,,Clear,340,2012-09-17 11:37:00
6:57 AM,46.4,39.2,76,30.06,10.0,NNW,8.1,-,N/A,,Clear,340,2012-09-17 11:57:00
7:17 AM,46.4,39.2,76,30.06,10.0,NW,5.8,-,N/A,,Clear,320,2012-09-17 12:17:00
7:37 AM,44.6,39.2,81,30.07,10.0,NW,4.6,-,N/A,,Clear,320,2012-09-17 12:37:00
7:57 AM,44.6,39.2,81,30.07,10.0,NW,4.6,-,N/A,,Clear,320,2012-09-17 12:57:00
8:17 AM,46.4,39.2,76,30.07,10.0,Calm,Calm,-,N/A,,Clear,0,2012-09-17 13:17:00
8:37 AM,46.4,39.2,76,30.07,10.0,NW,5.8,-,N/A,,Clear,320,2012-09-17 13:37:00
8:57 AM,46.4,39.2,76,30.08,10.0,NW,8.1,-,N/A,,Clear,320,2012-09-17 13:57:00
9:18 AM,48.2,39.2,71,30.08,10.0,NW,8.1,-,N/A,,Clear,320,2012-09-17 14:18:00
9:37 AM,48.2,39.2,71,30.08,10.0,NW,6.9,-,N/A,,Clear,320,2012-09-17 14:37:00
9:57 AM,51.8,39.2,62,30.08,10.0,NNW,10.4,-,N/A,,Clear,330,2012-09-17 14:57:00
10:17 AM,55.4,37.4,51,30.07,10.0,NNW,10.4,-,N/A,,Clear,340,2012-09-17 15:17:00
10:37 AM,55.4,37.4,51,30.08,10.0,NNW,12.7,-,N/A,,Scattered Clouds,340,2012-09-17 15:37:00
10:57 AM,55.4,37.4,51,30.08,10.0,North,13.8,18.4,N/A,,Scattered Clouds,350,2012-09-17 15:57:00
11:17 AM,55.4,35.6,47,30.08,10.0,NNW,15.0,-,N/A,,Scattered Clouds,330,2012-09-17 16:17:00
11:37 AM,57.2,35.6,44,30.08,10.0,NNW,11.5,-,N/A,,Clear,340,2012-09-17 16:37:00
11:58 AM,57.2,35.6,44,30.07,10.0,NNW,10.4,16.1,N/A,,Scattered Clouds,340,2012-09-17 16:58:00
12:17 PM,57.2,35.6,44,30.07,10.0,NNW,9.2,-,N/A,,Scattered Clouds,340,2012-09-17 17:17:00
12:37 PM,57.2,35.6,44,30.06,10.0,NW,12.7,-,N/A,,Scattered Clouds,320,2012-09-17 17:37:00
12:57 PM,59.0,35.6,42,30.06,10.0,NW,12.7,-,N/A,,Scattered Clouds,310,2012-09-17 17:57:00
1:17 PM,60.8,35.6,39,30.05,10.0,NNW,11.5,16.1,N/A,,Scattered Clouds,330,2012-09-17 18:17:00
1:37 PM,60.8,35.6,39,30.04,10.0,NW,11.5,-,N/A,,Scattered Clouds,310,2012-09-17 18:37:00
1:57 PM,62.6,33.8,34,30.03,10.0,NW,13.8,17.3,N/A,,Scattered Clouds,310,2012-09-17 18:57:00
2:17 PM,62.6,33.8,34,30.03,10.0,NNW,15.0,21.9,N/A,,Scattered Clouds,330,2012-09-17 19:17:00
2:37 PM,55.4,37.4,51,30.05,10.0,NNW,26.5,32.2,N/A,,Scattered Clouds,340,2012-09-17 19:37:00
2:57 PM,48.2,44.6,87,30.07,10.0,NW,20.7,24.2,0.01,Rain,Rain,310,2012-09-17 19:57:00
3:17 PM,48.2,44.6,87,30.04,10.0,WSW,4.6,-,0.02,Rain,Light Rain,240,2012-09-17 20:17:00
3:37 PM,51.8,44.6,76,30.04,10.0,NNW,10.4,-,0.02,,Scattered Clouds,330,2012-09-17 20:37:00
3:57 PM,53.6,44.6,72,30.03,10.0,NW,8.1,-,N/A,,Scattered Clouds,320,2012-09-17 20:57:00
4:17 PM,55.4,42.8,63,30.03,10.0,NW,9.2,-,N/A,,Scattered Clouds,310,2012-09-17 21:17:00
4:37 PM,53.6,41.0,62,30.03,10.0,NW,11.5,-,N/A,,Scattered Clouds,310,2012-09-17 21:37:00
4:57 PM,57.2,39.2,51,30.03,10.0,North,13.8,18.4,N/A,,Mostly Cloudy,350,2012-09-17 21:57:00
5:17 PM,55.4,39.2,54,30.03,10.0,NNW,10.4,-,N/A,,Scattered Clouds,340,2012-09-17 22:17:00
5:38 PM,57.2,37.4,48,30.03,10.0,NW,12.7,16.1,N/A,,Scattered Clouds,320,2012-09-17 22:38:00
5:58 PM,57.2,37.4,48,30.03,10.0,NW,12.7,-,N/A,,Clear,320,2012-09-17 22:58:00
6:17 PM,55.4,35.6,47,30.03,10.0,NNW,12.7,-,N/A,,Clear,340,2012-09-17 23:17:00
6:37 PM,55.4,33.8,44,30.03,10.0,NNW,11.5,-,N/A,,Clear,340,2012-09-17 23:37:00
6:58 PM,53.6,33.8,47,30.03,10.0,NNW,8.1,-,N/A,,Clear,330,2012-09-17 23:58:00
7:18 PM,50.0,35.6,58,30.04,10.0,NW,8.1,-,N/A,,Clear,320,2012-09-18 00:18:00
7:37 PM,48.2,35.6,62,30.04,10.0,NW,5.8,-,N/A,,Clear,320,2012-09-18 00:37:00
7:57 PM,48.2,35.6,62,30.05,10.0,NW,9.2,-,N/A,,Clear,320,2012-09-18 00:57:00
8:17 PM,48.2,37.4,66,30.05,10.0,NW,8.1,-,N/A,,Clear,310,2012-09-18 01:17:00
8:37 PM,44.6,37.4,76,30.05,10.0,WNW,5.8,-,N/A,,Clear,300,2012-09-18 01:37:00
8:57 PM,46.4,37.4,71,30.06,10.0,NNW,6.9,-,N/A,,Clear,330,2012-09-18 01:57:00
9:18 PM,42.8,35.6,76,30.06,10.0,NW,5.8,-,N/A,,Clear,310,2012-09-18 02:18:00
9:37 PM,42.8,35.6,76,30.06,10.0,NW,3.5,-,N/A,,Clear,310,2012-09-18 02:37:00
9:57 PM,39.2,35.6,87,30.07,10.0,WNW,4.6,-,N/A,,Clear,300,2012-09-18 02:57:00
10:17 PM,39.2,35.6,87,30.06,10.0,WNW,3.5,-,N/A,,Clear,300,2012-09-18 03:17:00
10:37 PM,37.4,35.6,93,30.06,10.0,WNW,4.6,-,N/A,,Clear,290,2012-09-18 03:37:00
11:18 PM,37.4,35.6,93,30.06,10.0,Calm,Calm,-,N/A,,Clear,0,2012-09-18 04:18:00
11:38 PM,37.4,35.6,93,30.06,10.0,Calm,Calm,-,N/A,,Clear,0,2012-09-18 04:38:00
11:57 PM,37.4,35.6,93,30.07,10.0,NW,3.5,-,N/A,,Clear,320,2012-09-18 04:57:00